Weather in Veisiejai

Lithuania     54°05′49″N   23°42′20″E
temp.,
°C
wind,
m/s
gust,
m/s
humid.,
%
clouds,
%
prec.,
mm/h
press.,
hPa
HPBL,
m
28 july, wed
wed2800:00+19sw119186 1.1 101216
03:00+18sw229432 1.1 101235
06:00+17w229529 0.0 101240
09:00+21w1279100 0.0 1012285
12:00+28w3548100 0.0 10111468
15:00+29w463712 0.0 10112384
18:00+25w225541 0.0 101050
21:00+24sse115793 0.0 101016
29 july, thu
thu2900:00+19sw388290 0.4 1010185
03:00+18w2798100 2.6 1010205
06:00+18ene1194100 2.8 100922
09:00+19wsw2494100 2.8 1009209
12:00+24wnw345614 0.0 10101199
15:00+28wnw454280 0.0 10082436
18:00+24w385487 0.0 1008499
21:00+21wsw276796 0.0 1009250
30 july, fri
fri3000:00+19wnw2674100 0.0 1009158
03:00+18wnw117640 0.0 100912
06:00+15sw358671 0.0 100996
09:00+20wsw465822 0.0 1009445
12:00+24wsw583999 0.0 10082185
15:00+23wsw51045100 0.0 10072200
18:00+22w4952100 0.0 10071310
21:00+20wsw385776 0.0 1007431
31 july, sat
sat3100:00+16sw38727 0.0 1007142
03:00+14wsw37800 0.0 1008130
06:00+13sw2379100 0.0 100748
09:00+19sw2558100 0.0 1007296
12:00+25ssw354285 0.0 10061139
15:00+19wnw2479100 0.4 100697
18:00+20s388593 1.6 1005423
21:00+19wsw2487100 2.0 100474
1 august, sun
sun100:00+15w3890100 0.1 1006153
03:00+13wsw37900 0.1 1007117
06:00+12sw310890 0.0 1007200
09:00+18wsw49635 0.0 1008672
12:00+23wsw57475 0.0 10081552
15:00+24w4543100 0.0 10081935
18:00+24wsw2346100 0.0 10081653
21:00+19wsw1165100 0.0 100812